カタログに戻る

BULGARIASAT-1

運用中通信GEO
NORAD 42801·PAYLOAD·🇧🇬 Bulgaria

打ち上げ Jun 23, 2017 から Cape Canaveral Space Force Station

Loading…

TLE

最新Source: Space-Track

元期: Sep 14, 2026, 06:58 UTC

1 42801U 17038A   26257.29041771  .00000005  00000-0  00000-0 0  9992
2 42801   0.0119 194.9957 0003451 353.0477 271.6753  1.00282879 33738

AllMySatでBULGARIASAT-1をリアルタイム追跡

Download on the App Store